Wind_Speed
9 11 10 9 2 3 11 5 6 3 10 8 6 12 11 8 8 9 11 5 6 2 4 4 5 5 6 7 7 6 5 5 4 4 3 4 5 6 7 8 9 9 9 9 8 8 7 7 6
8 9 11 4 4 5 9 2 8 8 12 8 9 8 11 17 11 17 8 9 4 4 5 5 5 6 7 6 6 6 5 5 5 5 6 7 7 8 7 7 7 7 7 7 7 6 7 7 7
6 10 8 5 8 3 7 6 9 7 15 5 6 3 13 16 13 12 8 14 10 8 7 6 6 7 7 7 7 7 7 7 7 7 7 6 6 6 6 7 7 8 8 7 7 8 9 10 10
6 6 8 5 9 6 7 6 9 11 7 5 5 6 15 13 14 13 11 21 12 11 10 9 9 9 10 10 10 10 9 10 9 9 9 8 7 7 6 6 6 6 7 8 9 10 12 13 14
8 6 7 8 8 10 10 10 16 38 21 2 7 12 17 21 20 16 13 16 12 14 13 12 12 12 13 13 13 13 12 11 10 9 7 6 5 5 5 7 9 10 12 13 14 14 14 13 13
8 5 15 22 19 13 7 14 7 7 10 4 10 11 19 26 23 15 4 14 13 12 12 11 11 12 12 13 12 10 8 8 8 8 7 6 6 8 9 9 11 12 12 13 12 10 10 10 12
8 8 18 24 13 9 18 11 12 10 10 5 7 10 19 22 21 12 14 9 9 10 7 8 9 11 9 7 6 7 7 7 7 7 7 8 10 10 11 11 14 13 15 13 13 12 12 13 14
6 11 22 22 23 25 10 14 11 9 7 7 4 4 14 21 21 19 12 8 5 9 10 8 9 10 4 3 5 6 5 6 7 9 12 13 13 14 13 12 14 15 16 15 13 14 16 17 16
9 18 25 23 19 20 15 17 5 22 17 15 5 4 13 20 24 17 11 9 3 4 5 7 8 7 5 5 6 8 3 8 10 12 15 16 14 15 18 16 16 16 17 17 16 17 17 16 15
16 17 20 19 15 19 8 16 22 13 11 5 6 11 18 22 24 20 14 9 4 1 4 8 9 9 11 13 15 16 18 15 15 13 18 19 16 17 18 21 21 20 19 21 20 21 21 21 20
20 23 16 16 15 17 18 17 20 17 8 4 2 15 20 24 25 17 7 10 7 2 2 3 7 12 16 18 19 20 22 21 20 19 19 20 19 19 21 22 25 25 25 23 23 24 25 23 22
19 15 16 17 11 15 14 21 16 8 10 11 8 8 8 14 15 10 11 10 6 4 3 6 9 12 15 17 19 21 23 25 23 19 20 21 20 21 22 23 26 28 27 27 25 27 27 25 24
19 15 18 16 14 12 6 9 10 2 5 11 11 13 11 13 16 14 13 8 6 6 6 8 10 12 15 18 20 22 23 23 22 20 21 22 22 23 25 26 27 29 28 29 31 30 29 27 26
14 19 16 18 14 13 12 12 6 4 7 16 14 17 15 12 13 13 9 6 6 9 10 11 14 16 18 20 21 23 23 22 23 22 21 24 25 25 27 30 33 31 30 31 32 32 29 28 28
13 17 19 16 15 16 10 6 7 8 12 16 13 15 13 15 16 12 8 8 8 10 12 13 17 20 22 22 24 24 23 24 25 25 24 26 29 30 33 36 38 35 32 34 35 33 28 28 29
14 16 18 19 15 17 20 14 11 12 14 17 21 19 19 16 17 16 14 14 13 15 17 19 21 23 25 25 26 24 24 25 27 29 31 33 36 39 40 41 40 35 33 35 36 34 31 29 31
12 18 20 21 21 24 24 22 23 20 15 18 20 23 23 22 21 20 18 17 18 18 19 21 22 24 25 26 28 28 28 30 32 35 36 38 42 44 42 38 34 31 29 33 34 34 32 33 36
17 19 21 27 20 25 24 23 24 22 23 25 24 25 25 27 25 24 22 22 20 20 22 23 23 24 24 26 26 25 27 31 36 39 44 46 44 42 36 33 31 30 28 28 32 29 28 32 34
21 23 25 21 21 28 24 24 24 22 24 24 23 25 25 28 28 27 25 24 23 22 22 22 22 23 24 25 25 26 30 35 40 47 49 47 42 39 34 31 28 27 26 26 26 23 23 26 24
21 24 24 19 23 32 26 25 27 28 26 25 23 23 24 27 30 29 27 25 24 24 23 22 20 21 22 24 25 29 34 39 46 48 44 40 37 34 30 27 26 23 21 20 20 18 16 17 15
24 25 25 10 14 17 14 25 34 32 27 25 23 25 27 30 30 29 28 26 25 25 23 19 18 20 22 24 27 31 37 43 44 40 39 34 32 30 27 24 20 17 13 13 14 10 8 8 8
26 19 23 21 18 18 19 12 29 32 32 23 26 29 27 31 30 33 31 26 25 25 21 17 16 19 21 25 28 34 39 40 37 35 33 31 28 26 22 18 12 10 8 8 9 6 5 5 6
21 17 19 18 11 9 8 8 19 34 30 26 19 31 31 33 26 30 34 28 23 21 18 14 15 18 20 25 31 36 39 35 31 29 27 24 23 20 16 11 7 7 5 6 7 7 7 6 5
19 18 23 20 16 5 17 23 17 22 28 27 22 37 38 33 24 27 28 17 15 11 13 12 13 18 21 27 32 36 33 30 28 26 23 22 19 16 14 12 10 10 8 7 6 7 7 6 6
22 23 13 2 4 6 4 8 9 17 14 19 13 24 33 30 25 26 22 16 11 11 10 10 13 18 22 27 34 34 31 26 25 23 21 20 17 14 11 10 8 7 9 8 8 9 9 8 9
23 21 17 6 2 5 17 6 3 7 7 8 10 21 30 22 22 22 18 14 12 12 10 10 14 18 21 27 34 30 26 24 21 19 18 17 15 12 11 9 9 8 10 10 10 10 11 11 9
26 34 24 24 23 7 14 8 11 9 8 6 11 23 23 20 18 21 17 13 13 13 10 11 14 17 21 28 30 27 24 23 18 16 14 12 11 11 11 10 10 10 11 12 12 13 14 15 14
27 20 18 24 4 4 5 10 7 12 13 11 17 20 18 19 19 19 14 15 13 11 8 11 14 18 22 29 27 24 23 20 15 13 12 11 9 9 9 10 10 11 11 12 16 18 19 19 19
26 21 23 18 8 5 4 4 4 18 15 7 9 14 15 21 17 11 12 14 14 12 10 12 15 17 22 28 25 23 20 18 14 12 11 8 7 7 8 9 10 10 12 15 18 20 22 21 20
26 21 17 17 5 1 4 10 9 16 7 9 15 15 17 13 18 14 14 12 17 15 15 13 15 19 22 26 23 21 19 15 13 12 9 8 5 6 7 8 10 11 13 15 20 20 20 19 17
Wind_Direction
314 308 312 296 56 246 99 186 340 89 58 39 19 41 84 130 169 143 135 145 138 96 83 84 101 116 124 128 125 115 99 84 77 76 72 63 44 32 28 25 22 17 14 14 14 14 8 1 351
299 299 310 256 236 144 158 210 29 99 108 95 37 24 85 97 93 120 126 79 122 104 95 80 88 101 103 103 102 101 96 85 75 62 45 39 35 34 30 27 22 24 21 21 24 25 20 11 358
283 288 289 279 292 256 65 84 249 129 148 218 54 28 79 91 117 106 84 88 111 102 93 96 98 90 84 83 78 74 68 68 64 61 61 57 52 45 42 42 40 30 22 11 358 349 340 332 327
268 295 332 328 97 113 47 104 178 194 108 212 346 52 85 90 87 80 61 103 91 98 94 92 88 88 89 86 84 84 82 79 75 68 62 59 55 49 45 36 17 355 336 327 319 315 315 313 308
271 257 325 313 287 212 291 287 324 223 277 82 9 66 95 91 78 75 68 75 87 90 95 92 91 91 89 87 84 81 80 75 69 62 52 39 22 8 348 333 320 316 315 313 313 311 311 312 310
242 289 287 296 279 270 252 290 119 47 77 59 21 79 104 94 97 120 62 80 84 99 96 90 87 84 82 81 82 73 53 36 32 27 12 352 343 330 321 324 317 319 317 315 320 325 323 321 319
246 292 293 301 312 255 221 222 149 107 63 303 3 40 111 119 141 163 79 110 95 102 79 76 84 78 74 73 64 39 22 29 27 10 345 344 343 337 337 332 322 324 321 315 311 314 314 318 321
245 286 289 287 299 288 220 202 202 184 209 190 348 64 123 120 97 107 131 112 106 48 73 76 53 77 103 38 32 18 8 0 350 340 333 339 338 333 329 322 317 314 311 311 311 307 309 312 312
225 258 270 278 298 303 235 231 162 135 147 178 121 117 130 110 108 168 167 163 106 29 49 62 45 32 29 336 14 352 345 340 343 336 326 326 324 323 317 319 320 322 313 304 299 299 297 299 306
232 247 256 268 289 288 206 152 148 121 123 170 121 131 123 120 161 183 198 221 228 341 25 23 17 350 348 353 350 343 339 334 332 336 320 319 322 315 309 315 315 312 305 302 303 297 297 300 301
231 251 256 250 286 317 161 173 146 137 124 136 139 150 161 169 182 199 193 203 208 222 68 3 341 334 337 338 339 338 330 326 320 326 313 313 315 311 309 306 304 303 303 302 299 293 291 295 296
241 257 266 274 289 311 188 190 184 211 328 156 172 202 204 196 211 205 212 229 229 235 273 308 322 324 327 328 326 326 320 316 316 312 311 313 315 312 307 300 297 297 297 296 288 285 287 287 286
239 252 259 266 283 283 220 192 241 239 321 161 182 197 202 197 209 223 235 248 232 250 283 310 318 318 316 319 319 316 315 313 313 315 318 317 316 315 311 309 303 305 298 288 284 282 282 281 280
260 249 252 252 265 249 265 254 248 166 157 179 198 197 211 222 224 237 264 287 274 292 311 317 320 319 318 319 321 322 318 316 314 318 320 316 315 316 313 308 305 305 296 287 283 280 280 279 278
260 253 250 230 239 227 266 215 227 192 192 189 209 205 213 234 249 260 268 280 284 297 303 315 318 320 318 319 321 320 317 316 314 316 315 314 317 316 314 311 308 305 293 287 283 283 281 277 276
269 237 249 237 241 225 225 202 237 212 219 216 222 212 218 241 258 268 272 278 286 292 301 308 313 317 318 319 319 315 310 306 304 309 315 319 318 318 317 312 308 302 291 284 283 281 278 277 272
237 236 238 246 224 211 213 223 233 230 243 249 239 223 228 239 251 257 267 275 280 288 297 305 308 312 314 315 316 314 310 309 311 312 316 318 321 318 314 309 305 298 290 283 281 278 278 273 271
238 234 239 246 239 217 215 222 227 228 237 246 248 237 248 248 248 253 259 266 272 280 289 296 301 308 312 314 312 310 311 312 315 316 320 322 320 315 312 307 303 298 291 279 275 279 277 276 277
247 255 250 257 231 206 206 213 219 239 234 241 244 246 249 256 251 252 254 260 264 272 280 289 295 305 312 312 307 308 311 317 320 324 324 322 320 315 313 310 303 294 289 284 285 285 279 277 286
255 265 270 288 206 199 199 214 224 242 233 237 236 245 256 261 263 262 256 257 261 267 275 287 293 304 308 306 308 313 319 325 326 326 324 323 320 317 316 310 302 297 293 290 292 296 293 295 302
253 256 267 204 200 222 205 204 221 219 217 209 244 244 252 263 270 274 271 268 266 266 274 285 293 302 306 308 314 321 326 330 328 327 324 324 321 318 316 310 306 303 300 299 305 322 322 318 322
257 259 259 267 188 193 216 210 218 230 219 209 246 244 246 255 269 278 280 279 275 273 274 285 292 300 306 311 319 324 329 330 330 330 331 330 327 321 320 317 314 312 313 317 335 2 359 354 344
262 245 254 261 234 211 233 235 251 227 221 260 232 246 240 248 266 282 286 292 284 273 282 282 294 301 310 315 324 331 333 335 337 338 338 337 333 333 338 342 347 344 7 8 15 8 3 5 4
255 243 251 261 245 219 252 246 251 229 222 243 261 228 243 245 258 266 279 304 309 286 273 290 296 305 316 322 328 335 338 341 343 346 348 346 345 348 359 13 26 36 36 28 28 24 26 18 8
238 231 247 262 240 228 342 318 347 273 257 274 259 199 222 242 256 263 280 305 311 292 292 295 298 309 322 327 335 338 341 345 348 353 353 354 352 356 6 17 35 39 49 33 33 30 23 20 4
230 231 224 200 198 307 313 312 271 262 194 193 175 193 220 243 256 259 278 291 295 304 301 306 310 316 324 334 337 339 344 345 347 356 358 354 356 1 11 17 36 39 44 39 23 15 3 358 356
235 233 230 249 279 212 239 145 156 186 186 169 186 213 233 221 254 276 279 294 298 313 307 313 303 318 331 336 338 341 343 346 345 358 355 355 5 14 23 25 26 27 28 23 13 4 357 353 349
239 216 234 243 207 235 161 132 175 177 180 196 200 206 216 238 246 261 286 296 312 320 308 295 304 323 334 334 340 341 343 343 344 355 352 359 7 21 23 24 17 26 27 17 8 360 356 353 351
229 232 215 262 244 158 140 187 214 204 195 243 245 204 219 241 247 282 294 316 321 331 305 291 305 320 328 336 339 340 341 343 344 348 348 353 7 22 19 13 12 24 17 9 2 357 353 347 341
228 245 227 221 210 130 164 196 141 146 224 173 228 220 216 251 259 260 291 324 328 320 305 288 295 317 331 337 337 338 340 341 339 338 342 341 354 8 11 12 19 8 6 2 360 349 340 345 345
Height
3180 3179 3180 3181 3184 3182 3183 3185 3182 3183 3183 3181 3178 3178 3177 3177 3175 3179 3177 3179 3182 3180 3179 3178 3178 3178 3178 3178 3179 3180 3182 3183 3183 3183 3183 3184 3184 3184 3184 3183 3183 3184 3184 3183 3183 3183 3183 3183 3183
3179 3179 3178 3179 3181 3181 3183 3185 3187 3185 3186 3183 3178 3177 3176 3174 3176 3174 3176 3179 3180 3180 3179 3179 3179 3178 3178 3179 3180 3180 3182 3182 3183 3183 3184 3184 3184 3184 3184 3183 3183 3182 3183 3183 3182 3182 3182 3182 3181
3178 3177 3179 3178 3181 3184 3184 3188 3185 3182 3183 3185 3181 3180 3175 3174 3176 3174 3174 3177 3177 3179 3179 3180 3179 3179 3179 3180 3181 3181 3182 3182 3183 3183 3183 3183 3183 3183 3183 3183 3183 3183 3183 3182 3182 3181 3181 3180 3179
3177 3176 3177 3178 3181 3183 3184 3182 3186 3180 3175 3181 3182 3179 3177 3177 3175 3176 3175 3179 3179 3179 3181 3182 3181 3180 3179 3180 3180 3181 3182 3183 3183 3183 3183 3183 3183 3183 3183 3182 3183 3182 3181 3181 3180 3179 3178 3177 3177
3176 3175 3174 3179 3177 3174 3174 3174 3179 3160 3166 3181 3181 3177 3181 3180 3176 3175 3178 3181 3181 3181 3182 3182 3181 3181 3180 3180 3181 3183 3183 3184 3184 3184 3184 3184 3184 3183 3183 3182 3181 3180 3179 3178 3177 3176 3175 3174 3173
3175 3175 3174 3176 3177 3173 3173 3171 3174 3178 3180 3183 3181 3181 3181 3182 3181 3180 3180 3183 3183 3182 3182 3182 3182 3182 3181 3182 3182 3184 3184 3185 3185 3184 3183 3182 3182 3182 3181 3180 3179 3178 3177 3176 3174 3173 3172 3171 3171
3172 3173 3171 3173 3176 3175 3167 3169 3169 3169 3177 3186 3181 3181 3181 3182 3183 3184 3184 3184 3183 3184 3185 3185 3183 3183 3183 3183 3183 3184 3184 3185 3184 3183 3182 3182 3181 3180 3179 3179 3177 3175 3174 3173 3172 3171 3170 3169 3168
3171 3173 3169 3167 3175 3175 3165 3166 3169 3173 3174 3179 3178 3181 3182 3183 3185 3185 3182 3182 3182 3184 3186 3187 3186 3185 3184 3183 3183 3184 3185 3184 3184 3182 3181 3181 3180 3179 3178 3177 3176 3174 3172 3171 3170 3169 3168 3166 3165
3170 3169 3166 3164 3171 3175 3167 3168 3174 3175 3176 3178 3178 3180 3183 3184 3186 3182 3184 3184 3185 3183 3185 3187 3187 3185 3184 3183 3183 3184 3184 3184 3184 3182 3180 3178 3178 3176 3174 3174 3172 3171 3169 3168 3167 3165 3164 3163 3162
3167 3165 3164 3165 3167 3173 3169 3170 3174 3179 3180 3186 3178 3179 3183 3187 3186 3185 3185 3186 3187 3187 3186 3184 3184 3182 3180 3181 3181 3181 3181 3181 3182 3181 3177 3175 3175 3173 3171 3170 3168 3167 3166 3164 3164 3162 3160 3159 3158
3164 3162 3165 3163 3167 3174 3163 3166 3168 3170 3172 3181 3179 3178 3180 3181 3183 3184 3185 3186 3187 3188 3187 3185 3183 3182 3180 3180 3180 3180 3178 3178 3178 3177 3175 3173 3173 3170 3169 3166 3164 3162 3161 3161 3159 3157 3156 3155 3152
3163 3163 3164 3164 3167 3171 3167 3161 3164 3167 3169 3175 3174 3178 3181 3182 3182 3184 3184 3185 3187 3187 3186 3185 3184 3184 3182 3181 3179 3179 3178 3175 3175 3174 3171 3169 3169 3167 3165 3163 3159 3157 3156 3154 3153 3150 3149 3149 3147
3161 3162 3164 3164 3168 3169 3166 3165 3161 3163 3165 3170 3176 3180 3182 3182 3182 3182 3182 3185 3187 3185 3185 3184 3184 3183 3180 3179 3178 3175 3174 3172 3171 3171 3168 3166 3164 3163 3160 3157 3154 3153 3150 3147 3145 3143 3142 3142 3141
3158 3161 3163 3163 3165 3165 3163 3163 3164 3164 3167 3172 3177 3178 3179 3179 3181 3180 3181 3182 3183 3182 3183 3182 3182 3180 3178 3176 3175 3173 3171 3169 3167 3167 3165 3161 3160 3158 3155 3151 3148 3147 3143 3139 3136 3135 3136 3135 3134
3156 3158 3160 3161 3162 3163 3159 3161 3164 3164 3166 3170 3173 3175 3176 3176 3176 3179 3180 3180 3180 3180 3181 3181 3179 3177 3176 3174 3171 3169 3167 3165 3162 3163 3161 3157 3155 3152 3148 3143 3139 3138 3134 3130 3127 3127 3127 3126 3125
3151 3153 3155 3157 3159 3160 3161 3160 3159 3162 3165 3168 3168 3172 3172 3171 3172 3174 3176 3178 3179 3177 3177 3177 3176 3174 3172 3170 3168 3166 3163 3162 3160 3158 3155 3152 3148 3144 3141 3134 3130 3128 3124 3120 3118 3118 3118 3118 3115
3148 3149 3151 3151 3155 3156 3158 3157 3156 3159 3162 3165 3165 3167 3167 3169 3170 3171 3173 3175 3176 3175 3174 3174 3172 3171 3169 3167 3165 3162 3159 3157 3155 3151 3149 3147 3141 3136 3131 3126 3121 3117 3115 3111 3110 3109 3109 3106 3104
3147 3146 3146 3146 3150 3152 3155 3155 3155 3158 3160 3161 3162 3162 3164 3166 3168 3169 3170 3171 3172 3172 3172 3170 3169 3168 3167 3164 3162 3159 3157 3153 3149 3144 3141 3137 3133 3126 3121 3116 3112 3108 3106 3103 3100 3102 3100 3097 3096
3144 3145 3145 3141 3141 3146 3152 3154 3154 3155 3156 3157 3158 3158 3160 3163 3163 3165 3167 3167 3168 3168 3168 3167 3166 3165 3163 3161 3158 3156 3152 3148 3142 3136 3131 3126 3122 3116 3112 3108 3104 3100 3097 3095 3093 3094 3093 3089 3091
3142 3142 3140 3139 3135 3140 3145 3150 3153 3154 3151 3150 3153 3155 3157 3158 3159 3161 3162 3163 3163 3163 3163 3163 3163 3161 3160 3157 3155 3152 3147 3142 3135 3129 3123 3118 3113 3108 3104 3101 3096 3094 3092 3090 3088 3089 3087 3086 3086
3139 3139 3137 3142 3141 3142 3144 3146 3146 3149 3147 3147 3153 3155 3153 3153 3155 3158 3159 3160 3159 3159 3159 3159 3159 3157 3156 3153 3151 3147 3143 3137 3130 3124 3118 3113 3107 3102 3098 3094 3091 3089 3087 3086 3085 3085 3084 3084 3083
3135 3136 3135 3138 3141 3140 3142 3143 3141 3140 3143 3147 3152 3153 3152 3147 3149 3152 3154 3156 3156 3156 3155 3155 3155 3154 3153 3150 3147 3143 3139 3133 3126 3119 3113 3107 3102 3097 3094 3090 3087 3086 3085 3084 3083 3083 3083 3082 3082
3132 3133 3134 3135 3136 3136 3138 3139 3134 3136 3144 3144 3155 3153 3148 3145 3146 3149 3151 3151 3151 3152 3152 3152 3152 3151 3150 3147 3143 3139 3133 3126 3121 3116 3111 3105 3100 3096 3092 3089 3087 3085 3084 3084 3084 3083 3083 3082 3081
3131 3131 3132 3131 3131 3131 3134 3136 3131 3131 3133 3135 3134 3143 3143 3141 3143 3146 3148 3148 3147 3147 3149 3149 3149 3147 3147 3144 3140 3135 3128 3123 3118 3113 3108 3103 3100 3097 3093 3090 3089 3087 3086 3086 3085 3084 3083 3082 3080
3126 3128 3129 3130 3129 3129 3132 3131 3129 3130 3131 3133 3134 3135 3139 3139 3145 3145 3144 3144 3144 3145 3146 3146 3146 3145 3144 3141 3135 3129 3124 3120 3115 3111 3107 3103 3100 3098 3095 3093 3091 3089 3088 3088 3087 3085 3083 3082 3080
3121 3124 3125 3130 3130 3130 3127 3129 3127 3132 3132 3132 3133 3136 3139 3142 3143 3142 3143 3142 3141 3142 3143 3143 3142 3142 3141 3137 3132 3126 3122 3118 3114 3110 3107 3104 3102 3099 3097 3094 3092 3091 3089 3089 3087 3085 3083 3081 3079
3118 3117 3122 3123 3123 3126 3127 3127 3127 3126 3128 3128 3130 3131 3134 3137 3139 3140 3140 3139 3139 3139 3139 3139 3140 3140 3137 3133 3129 3124 3120 3117 3114 3110 3107 3105 3102 3100 3098 3096 3094 3092 3090 3089 3087 3084 3082 3079 3076
3113 3116 3118 3119 3123 3123 3122 3123 3124 3125 3126 3128 3130 3130 3132 3133 3137 3137 3136 3135 3137 3138 3137 3137 3136 3136 3133 3130 3126 3122 3118 3115 3113 3109 3108 3105 3103 3101 3099 3097 3096 3094 3092 3090 3087 3084 3080 3076 3073
3108 3111 3113 3116 3117 3117 3122 3125 3121 3122 3126 3124 3125 3127 3129 3132 3132 3133 3133 3133 3134 3134 3134 3134 3133 3133 3132 3127 3123 3121 3117 3114 3112 3109 3108 3106 3104 3102 3101 3099 3097 3095 3093 3090 3087 3083 3078 3075 3072
3105 3107 3109 3111 3115 3113 3115 3120 3121 3120 3123 3123 3119 3125 3127 3126 3125 3128 3129 3130 3130 3132 3132 3132 3131 3130 3127 3125 3122 3119 3116 3113 3111 3110 3107 3106 3104 3102 3101 3099 3098 3095 3092 3090 3085 3082 3078 3074 3069